Lexington Weather

Lexington, Massachusetts, USA

43°F
9/20/2020 10:50pm 
  • Lexington Conditions: Clear
  • Temperature: 43.2°F / 6.2°CColder 1.6°F than last hour.
  • Dew Point: 37.0°FDecreased 0.9°Fsince last hour.
  • Relative Humidity: 79%Increased 2.0% since last hour.
  • Wind: Calm, 10-min avg: Calm, gust: None
  • Barometer: 30.53 in Steady
  • Visibility: 10 miles
  • Rain Today: 0.00 in
  •   
Southeast Middlesex County - Special Weather Statement - Special Weather Statement
 - SEE ALL NEARBY ALERTS -

Regional Weather Roundup
for Boston / Norton, MA

        
000
ASUS41 KBOX 161504
RWRBOX

REGIONAL WEATHER ROUNDUP
NATIONAL WEATHER SERVICE BOSTON/NORTON MA
1100 AM EDT WED SEP 16 2020

NOTE:  "FAIR" INDICATES FEW OR NO CLOUDS BELOW 12,000 FEET WITH NO 
SIGNIFICANT WEATHER AND/OR OBSTRUCTIONS TO VISIBILITY.

MAZALL-161600-
EASTERN MASSACHUSETTS
  
CITY           SKY/WX    TMP DP  RH WIND       PRES   REMARKS
BOSTON         PTSUNNY   67  51  56 SW21      30.23F                  
BEVERLY        SUNNY     66  52  60 SW21G30   30.21F                  
LAWRENCE       SUNNY     65  53  65 SW17G25   30.22F                  
BEDFORD        MOSUNNY   67  53  61 SW12G25   30.21F                  
BLUE HILL        N/A     65  52  62 SW14G25   30.23R                  
NORWOOD        MOSUNNY   68  52  56 SW13G23   30.23F                  
MARSHFIELD     MOSUNNY   70  55  60 SW9G21    30.23F                  
PLYMOUTH       MOSUNNY   67  53  61 SW17G25   30.25F                  
TAUNTON        PTSUNNY   69  53  56 S12G21    30.25F                  
NEW BEDFORD    PTSUNNY   69  53  56 S15G24    30.25F                  
$$

MAZALL-161600-
CAPE COD AND THE ISLANDS
  
CITY           SKY/WX    TMP DP  RH WIND       PRES   REMARKS
FALMOUTH       MOSUNNY   68  52  56 SW17G25   30.27S                  
HYANNIS        PTSUNNY   68  54  60 S14G23    30.26S                  
CHATHAM        MOSUNNY   68  55  63 SW10G18   30.29S                  
PROVINCETOWN   SUNNY     67  56  67 SW13      30.26S                  
NANTUCKET      SUNNY     66  55  67 S12       30.29S                  
MARTHAS VNYRD  MOSUNNY   69  54  58 S18       30.28S                  
$$
 
MAZALL-161600-
CENTRAL AND WESTERN MASSACHUSETTS
  
CITY           SKY/WX    TMP DP  RH WIND       PRES   REMARKS
WORCESTER      SUNNY     63  51  65 SW14G23   30.23S                  
FITCHBURG      SUNNY     66  49  54 SW14      30.22F                  
ORANGE         SUNNY     64  46  52 SW12G21   30.22F                  
SPRINGFIELD    NOT AVBL                                               
WESTFIELD      SUNNY     67  48  50 SW16      30.22F                  
NORTH ADAMS    SUNNY     63  47  55 SE5       30.19F                  
PITTSFIELD     SUNNY     62  47  57 VRB6G17   30.20F                  
$$
 
RIZALL-161600-
RHODE ISLAND
  
CITY           SKY/WX    TMP DP  RH WIND       PRES   REMARKS
PROVIDENCE     PTSUNNY   69  53  56 SW16G23   30.26F                  
NEWPORT        CLOUDY    67  52  58 SW8       30.26S                  
BLOCK ISLAND   PTSUNNY   67  52  58 SW16      30.28S                  
SMITHFIELD     CLOUDY    65  54  67 SW9G20    30.25F                  
WESTERLY       CLOUDY    67  52  58 SW8       30.27S                  
$$
 
CTZALL-161600-
CONNECTICUT
  
CITY           SKY/WX    TMP DP  RH WIND       PRES   REMARKS
BRADLEY INTL   PTSUNNY   67  50  54 S16G23    30.23F                  
HARTFORD       SUNNY     67  51  56 SW7G16    30.24F                  
BRIDGEPORT     SUNNY     67  54  63 SW9       30.26R                  
DANBURY        MOSUNNY   64  52  64 SW8G20    30.26S                  
GROTON         CLOUDY    69  55  60 S14       30.25S                  
NEW HAVEN      PTSUNNY   67  56  67 SW9       30.26S                  
CHESTER        FAIR      68  55  64 SW12      30.26S                  
MERIDEN        MOSUNNY   67  52  58 SW7       30.25F                  
WILLIMANTIC    PTSUNNY   67  53  61 SW8G16    30.25F                  
OXFORD         MOSUNNY   63  54  72 SW6       30.26F                  
$$

MEZ002-015-021-024-NHZ003-005-008-011-012-014-VTZ005-008-161600-
NORTHERN NEW ENGLAND
  
CITY           SKY/WX    TMP DP  RH WIND       PRES   REMARKS
PORTLAND ME    SUNNY     66  48  52 SW13G21   30.15F                  
BANGOR ME      MOSUNNY   66  46  48 S22G31    30.09F                  
CONCORD NH     SUNNY     66  44  45 SW14G21   30.18F                  
MANCHESTER NH  MOSUNNY   67  47  48 SW14G22   30.17F                  
NASHUA NH      SUNNY     66  52  60 VRB7      30.20F                  
PORTSMOUTH NH  MOSUNNY   65  49  55 SW18G26   30.17F                  
JAFFREY NH     SUNNY     62  45  53 S13G20    30.21F                  
KEENE NH       SUNNY     63  45  51 S10G21    30.20F                  
BURLINGTON VT  PTSUNNY   64  42  44 S18G25    30.06F                  
MT. WASHINGTON CLOUDY    48  19  32 W39G53      N/A                   
$$

NYZ052-076-161600-
EASTERN NEW YORK
  
CITY           SKY/WX    TMP DP  RH WIND       PRES   REMARKS
ALBANY         PTSUNNY   57  48  72 S10       30.19F                  
NEW YORK CITY  CLOUDY    68  51  54 SW8       30.25S                  
$$
 
ANZALL-161600-
MARINE OBSERVATIONS
  
STATION/POSITION TIME  TEMP    WIND        PRES    VSBY  WAVE
                       AIR SEA DIR/SP/G                  HT/PER
                 (UTC) (F)     (DEG/KT/KT) (MB)    (MI)  (FT/S)
BOSTON BUOY      1450   63 63  200/ 16/ 19 1022.3F         2/ 9
BUZZARDS BAY     1400          210/ 18/ 20 1025.8F
NANTUCKET SOUND  1440      70  200/ 16/ 17   N/A
MASS BAY-STELLWA 1404   61     240/ 17/ 21 1021.5S  1 7/8  3/ 4
ISLE OF SHOALS   1400   58     220/ 20/ 23 1022.5F
S OF BLOCK IS    1426      70                N/A           4/11
$$

......................KEY.........................
  SKY/WX - SKY CONDITION/PRESENT WEATHER
  TMP    - TEMPERATURE IN FAHRENHEIT
  DWPT   - DEWPOINT IN FAHRENHEIT
  RH     - RELATIVE HUMIDITY IN PERCENT
  WIND   - DIRECTION AND SPEED IN MPH
  PRES   - MEAN SEA LEVEL PRESSURE IN INCHES OF HG
  WCI    - WIND CHILL INDEX
  VSB    - VISIBILITY IN MILES
  HX     - HEAT INDEX
  TC     - TEMPERATURE IN CELSIUS
  VRB    - VARIABLE WIND DIRECTION
  N/A    - NOT AVAILABLE
  
      

Other recent Regional Weather Roundups

Sun Sep 20, 10:04pm

Sun Sep 20, 9:04pm

Sun Sep 20, 8:05pm

Sun Sep 20, 7:04pm

Sun Sep 20, 6:04pm

Sun Sep 20, 5:04pm

Sun Sep 20, 4:04pm

Sun Sep 20, 3:05pm

Sun Sep 20, 2:05pm

Sun Sep 20, 1:04pm

Sun Sep 20, 12:04pm

Sun Sep 20, 11:04am

Sun Sep 20, 10:04am

Sun Sep 20, 9:04am

Sun Sep 20, 8:04am

Sun Sep 20, 7:04am

Sun Sep 20, 6:04am

Sun Sep 20, 5:04am

Sun Sep 20, 4:04am

Sun Sep 20, 3:05am

Sun Sep 20, 2:04am

Sun Sep 20, 1:04am

Sun Sep 20, 12:04am

Sat Sep 19, 11:04pm

Sat Sep 19, 10:04pm

Sat Sep 19, 9:04pm

Sat Sep 19, 8:05pm

Sat Sep 19, 7:04pm

Sat Sep 19, 6:05pm

Sat Sep 19, 5:04pm

Sat Sep 19, 4:04pm

Sat Sep 19, 3:04pm

Sat Sep 19, 2:04pm

Sat Sep 19, 1:05pm

Sat Sep 19, 12:04pm

Sat Sep 19, 11:04am

Sat Sep 19, 10:04am

Sat Sep 19, 9:05am

Sat Sep 19, 8:04am

Sat Sep 19, 7:04am

Sat Sep 19, 6:04am

Sat Sep 19, 5:04am

Sat Sep 19, 4:04am

Sat Sep 19, 3:04am

Sat Sep 19, 2:04am

Sat Sep 19, 1:04am

Sat Sep 19, 12:04am

Fri Sep 18, 11:05pm

Fri Sep 18, 10:04pm

Fri Sep 18, 9:04pm

Fri Sep 18, 8:04pm

Fri Sep 18, 7:04pm

Fri Sep 18, 6:04pm

Fri Sep 18, 5:05pm

Fri Sep 18, 4:04pm

Fri Sep 18, 3:05pm

Fri Sep 18, 2:04pm

Fri Sep 18, 1:04pm

Fri Sep 18, 12:04pm

Fri Sep 18, 11:05am

Fri Sep 18, 10:05am

Fri Sep 18, 9:04am

Fri Sep 18, 8:04am

Fri Sep 18, 7:04am

Fri Sep 18, 6:04am

Fri Sep 18, 5:04am

Fri Sep 18, 4:04am

Fri Sep 18, 3:04am

Fri Sep 18, 2:04am

Fri Sep 18, 1:04am

Fri Sep 18, 12:04am

Thu Sep 17, 11:05pm

Thu Sep 17, 10:04pm

Thu Sep 17, 9:04pm

Thu Sep 17, 8:05pm

Thu Sep 17, 7:04pm

Thu Sep 17, 6:04pm

Thu Sep 17, 5:04pm

Thu Sep 17, 4:04pm

Thu Sep 17, 3:05pm

Thu Sep 17, 2:04pm

Thu Sep 17, 1:04pm

Thu Sep 17, 12:04pm

Thu Sep 17, 11:04am

Thu Sep 17, 10:04am

Thu Sep 17, 9:04am

Thu Sep 17, 8:04am

Thu Sep 17, 7:04am

Thu Sep 17, 6:04am

Thu Sep 17, 5:04am

Thu Sep 17, 4:04am

Thu Sep 17, 3:04am

Thu Sep 17, 2:05am

Thu Sep 17, 1:05am

Thu Sep 17, 12:04am

Wed Sep 16, 11:04pm

Wed Sep 16, 10:04pm

Wed Sep 16, 9:04pm

Wed Sep 16, 8:05pm

Wed Sep 16, 7:04pm

Wed Sep 16, 6:04pm

Wed Sep 16, 5:04pm

Wed Sep 16, 4:04pm

Wed Sep 16, 3:04pm

Wed Sep 16, 2:04pm

Wed Sep 16, 1:04pm

Wed Sep 16, 12:04pm

Wed Sep 16, 10:04am

Wed Sep 16, 9:04am

Wed Sep 16, 8:04am

Wed Sep 16, 7:04am

Wed Sep 16, 6:04am

Wed Sep 16, 5:04am

Wed Sep 16, 4:04am

Wed Sep 16, 3:04am

Wed Sep 16, 2:04am

Wed Sep 16, 1:04am

Wed Sep 16, 12:05am

Tue Sep 15, 11:04pm

Tue Sep 15, 10:04pm

Tue Sep 15, 9:04pm

Tue Sep 15, 8:04pm

Tue Sep 15, 7:04pm

Tue Sep 15, 6:04pm

Tue Sep 15, 5:04pm

Tue Sep 15, 4:05pm

Tue Sep 15, 3:04pm

Tue Sep 15, 2:04pm

Tue Sep 15, 1:04pm

Tue Sep 15, 12:04pm

Tue Sep 15, 11:04am

Tue Sep 15, 10:04am

Tue Sep 15, 9:04am

Tue Sep 15, 8:04am

Tue Sep 15, 7:04am

Tue Sep 15, 6:04am

Tue Sep 15, 5:04am

Tue Sep 15, 4:04am

Tue Sep 15, 3:04am

Tue Sep 15, 2:04am

Tue Sep 15, 1:04am

Tue Sep 15, 12:05am

Mon Sep 14, 11:04pm

Mon Sep 14, 10:04pm

Mon Sep 14, 9:04pm

Mon Sep 14, 8:04pm

Mon Sep 14, 7:04pm

Mon Sep 14, 6:04pm

Mon Sep 14, 5:04pm

Mon Sep 14, 4:05pm

Mon Sep 14, 3:04pm

Mon Sep 14, 2:05pm

Mon Sep 14, 1:04pm

Mon Sep 14, 12:04pm

Mon Sep 14, 11:04am

Mon Sep 14, 10:05am

Mon Sep 14, 9:04am

Mon Sep 14, 8:04am

Mon Sep 14, 7:04am

Mon Sep 14, 6:04am

Mon Sep 14, 5:04am

Mon Sep 14, 4:04am

Mon Sep 14, 3:04am

Mon Sep 14, 2:04am

Mon Sep 14, 1:04am

Mon Sep 14, 12:04am

Sun Sep 13, 11:05pm

Meta data:

ID: 2675a8f3-ce62-4dc5-81af-1ff6f705e863
Link: https://api.weather.gov/products/2675a8f3-ce62-4dc5-81af-1ff6f705e863